Satellite: FALCON
Catalog number: 30776
Epoch time:      09135.88677939
Element set:    0569
Inclination:      035.4346 deg
RA of node:       295.3806 deg
Eccentricity:    0.0001859
Arg of perigee:   347.0418 deg
Mean anomaly:     013.0250 deg
Mean motion:   15.03237171 rev/day
Decay rate:       3.58e-06 rev/day^2
Epoch rev:           12023
Checksum:              300

Satellite: AAUSAT2
Catalog number: 32788
Epoch time:      09135.85802207
Element set:     358
Inclination:      097.9466 deg
RA of node:       200.0074 deg
Eccentricity:    0.0016985
Arg of perigee:   135.8720 deg
Mean anomaly:     224.3828 deg
Mean motion:   14.81717603 rev/day
Decay rate:        9.8e-07 rev/day^2
Epoch rev:            5666
Checksum:              322

Satellite: MAST
Catalog number: 31126
Epoch time:      09135.74854816
Element set:    0596
Inclination:      097.9905 deg
RA of node:       192.0336 deg
Eccentricity:    0.0095357
Arg of perigee:   021.1493 deg
Mean anomaly:     339.3627 deg
Mean motion:   14.53495166 rev/day
Decay rate:        7.8e-07 rev/day^2
Epoch rev:           11032
Checksum:              315

Satellite: DO-64
Catalog number: 32789
Epoch time:      09135.74420960
Element set:     367
Inclination:      097.9490 deg
RA of node:       200.0342 deg
Eccentricity:    0.0016482
Arg of perigee:   133.7184 deg
Mean anomaly:     226.5397 deg
Mean motion:   14.81694797 rev/day
Decay rate:       6.40e-06 rev/day^2
Epoch rev:            5664
Checksum:              333

Satellite: CO-58
Catalog number: 28895
Epoch time:      09135.71091062
Element set:    0303
Inclination:      098.0654 deg
RA of node:       027.2297 deg
Eccentricity:    0.0019210
Arg of perigee:   089.7058 deg
Mean anomaly:     270.6350 deg
Mean motion:   14.59766904 rev/day
Decay rate:       1.34e-06 rev/day^2
Epoch rev:           18899
Checksum:              333

Satellite: COMPASS
Catalog number: 32787
Epoch time:      09135.07703906
Element set:    0358
Inclination:      097.9439 deg
RA of node:       199.1765 deg
Eccentricity:    0.0016631
Arg of perigee:   136.5483 deg
Mean anomaly:     223.7051 deg
Mean motion:   14.81596020 rev/day
Decay rate:       3.59e-06 rev/day^2
Epoch rev:           05654
Checksum:              321

Satellite: CO-66
Catalog number: 32791
Epoch time:      09135.04854398
Element set:    0352
Inclination:      097.9468 deg
RA of node:       199.1812 deg
Eccentricity:    0.0016820
Arg of perigee:   134.7813 deg
Mean anomaly:     225.4760 deg
Mean motion:   14.81427891 rev/day
Decay rate:       1.41e-06 rev/day^2
Epoch rev:           05650
Checksum:              324

Satellite: HUBBLE
Catalog number: 20580
Epoch time:      09134.53767208
Element set:    0387
Inclination:      028.4844 deg
RA of node:       321.9009 deg
Eccentricity:    0.0002635
Arg of perigee:   308.8673 deg
Mean anomaly:     091.8764 deg
Mean motion:   15.00571298 rev/day
Decay rate:     4.2590e-04 rev/day^2
Epoch rev:           84479
Checksum:              325

/EX



_______________________________________________
Via the Keps mailing list courtesy of AMSAT-NA
http://amsat.org/mailman/listinfo/keps

--- ViaMAIL!/WC v1.60d
 * Origin: Chowdanet (401-724-4410) telnet://chowdanet.com  (1:323/120)